Change the Weather History Date:

Friday, October 25, 2013

  Actual Average Record
Temperature  
Mean Temperature 40 °F -  
Max Temperature 55 °F 52 °F 69 °F (2000)
Min Temperature 26 °F 35 °F 19 °F (1998)
Degree Days  
Heating Degree Days 24    
Moisture  
Dew Point 31 °F    
Average Humidity 70    
Maximum Humidity 100    
Minimum Humidity 41    
Precipitation  
Precipitation 0.00 in - - ()
Sea Level Pressure  
Sea Level Pressure 30.13 in    
Wind  
Wind Speed 7 mph (SW)    
Max Wind Speed 24 mph    
Max Gust Speed 38 mph    
Visibility 10 miles    
Events      
Averages and records for this station are not official NWS values.
T = Trace of Precipitation, MM = Missing Value Source: NWS Daily Summary

Daily Weather History Graph

Daily Weather History Graph

Search for Another Location

Airport or City:

Trip Planner

Search our weather history database for the weather conditions in past years. The results will help you decide how hot, cold, wet, or windy it might be!

Date:

Astronomy

Oct. 25, 2013 Rise Set
Actual Time 7:40 AM CDT 6:13 PM CDT
Civil Twilight 7:11 AM CDT 6:43 PM CDT
Nautical Twilight 6:37 AM CDT 7:16 PM CDT
Astronomical Twilight 6:04 AM CDT 7:49 PM CDT
Moon 11:31 PM CDT (10/25) 1:24 PM CDT (10/25)
Length of Visible Light 11h 32m
Length of Day
10h 33m
Waning Gibbous, 62% of the Moon is Illuminated
Oct 25
Waning Gibbous
Oct 26
Last Quarter
Nov 3
New
Nov 9
First Quarter
Nov 17
Full

Hourly Weather History & Observations

Time (CDT) Temp. Windchill Dew Point Humidity Pressure Visibility Wind Dir Wind Speed Gust Speed Precip Events Conditions
12:10 AM 30.2 °F 26.7 °F 28.4 °F 93% 30.33 in 10.0 mi West 3.5 mph - N/A   Clear
12:30 AM 30.2 °F 25.4 °F 26.6 °F 86% 30.33 in 10.0 mi West 4.6 mph - N/A   Clear
12:50 AM 28.4 °F 24.6 °F 26.6 °F 93% 30.33 in 10.0 mi West 3.5 mph - N/A   Clear
1:10 AM 28.4 °F 23.3 °F 26.6 °F 93% 30.33 in 10.0 mi West 4.6 mph - N/A   Clear
1:30 AM 28.4 °F - 26.6 °F 93% 30.33 in 10.0 mi Calm Calm - N/A   Clear
1:50 AM 28.4 °F 24.6 °F 26.6 °F 93% 30.33 in 10.0 mi West 3.5 mph - N/A   Clear
2:10 AM 28.4 °F - 26.6 °F 93% 30.34 in 10.0 mi Calm Calm - N/A   Clear
2:30 AM 28.4 °F - 26.6 °F 93% 30.34 in 10.0 mi Calm Calm - N/A   Clear
2:50 AM 28.4 °F - 26.6 °F 93% 30.34 in 10.0 mi Calm Calm - N/A   Clear
3:10 AM 28.4 °F - 26.6 °F 93% 30.34 in 10.0 mi Calm Calm - N/A   Clear
3:30 AM 28.4 °F - 26.6 °F 93% 30.33 in 10.0 mi Calm Calm - N/A   Clear
3:50 AM 28.4 °F - 26.6 °F 93% 30.33 in 10.0 mi Calm Calm - N/A   Clear
4:09 AM 28.4 °F - 28.4 °F 100% 30.33 in 10.0 mi Calm Calm - N/A   Clear
4:30 AM 28.4 °F - 26.6 °F 93% 30.33 in 10.0 mi Calm Calm - N/A   Clear
4:49 AM 28.4 °F - 28.4 °F 100% 30.33 in 10.0 mi Calm Calm - N/A   Clear
5:10 AM 26.6 °F - 26.6 °F 100% 30.33 in 10.0 mi Calm Calm - N/A   Clear
5:30 AM 26.6 °F 22.6 °F 26.6 °F 100% 30.33 in 10.0 mi SW 3.5 mph - N/A   Clear
5:50 AM 26.6 °F - 26.6 °F 100% 30.33 in 7.0 mi Calm Calm - N/A   Clear
6:10 AM 26.6 °F - 26.6 °F 100% 30.33 in 7.0 mi Calm Calm - N/A   Clear
6:30 AM 26.6 °F - 26.6 °F 100% 30.32 in 7.0 mi Calm Calm - N/A   Clear
6:50 AM 26.6 °F - 26.6 °F 100% 30.31 in 10.0 mi Calm Calm - N/A   Clear
7:10 AM 26.6 °F 22.6 °F 26.6 °F 100% 30.31 in 7.0 mi SSW 3.5 mph - N/A   Clear
7:30 AM 26.6 °F 22.6 °F 26.6 °F 100% 30.31 in 10.0 mi SSW 3.5 mph - N/A   Clear
7:50 AM 26.6 °F - 26.6 °F 100% 30.30 in 7.0 mi Calm Calm - N/A   Clear
8:10 AM 26.6 °F 22.6 °F 26.6 °F 100% 30.30 in 7.0 mi South 3.5 mph - N/A   Clear
8:29 AM 28.4 °F - 28.4 °F 100% 30.29 in 7.0 mi Calm Calm - N/A   Clear
8:50 AM 30.2 °F 26.7 °F 28.4 °F 93% 30.29 in 10.0 mi South 3.5 mph - N/A   Clear
9:10 AM 32.0 °F 26.4 °F 30.2 °F 93% 30.28 in 10.0 mi South 5.8 mph - N/A   Clear
9:29 AM 33.8 °F 27.0 °F 30.2 °F 87% 30.28 in 10.0 mi SSW 8.1 mph - N/A   Clear
9:50 AM 35.6 °F 29.2 °F 30.2 °F 81% 30.27 in 10.0 mi SSW 8.1 mph - N/A   Clear
10:10 AM 37.4 °F 31.4 °F 30.2 °F 75% 30.26 in 10.0 mi South 8.1 mph - N/A   Clear
10:30 AM 39.2 °F 33.0 °F 28.4 °F 65% 30.25 in 10.0 mi SSW 9.2 mph 16.1 mph N/A   Clear
10:50 AM 41.0 °F 35.2 °F 30.2 °F 65% 30.23 in 10.0 mi SSW 9.2 mph - N/A   Scattered Clouds
11:10 AM 42.8 °F 35.8 °F 30.2 °F 61% 30.22 in 10.0 mi SSW 13.8 mph 20.7 mph N/A   Scattered Clouds
11:30 AM 44.6 °F 38.4 °F 28.4 °F 53% 30.20 in 10.0 mi SSW 12.7 mph 19.6 mph N/A   Scattered Clouds
11:50 AM 44.6 °F 38.8 °F 28.4 °F 53% 30.19 in 10.0 mi SW 11.5 mph 21.9 mph N/A   Scattered Clouds
12:10 PM 46.4 °F 40.7 °F 28.4 °F 50% 30.17 in 10.0 mi SSW 12.7 mph 20.7 mph N/A   Scattered Clouds
12:30 PM 48.2 °F - 28.4 °F 46% 30.15 in 10.0 mi SSW 15.0 mph 21.9 mph N/A   Mostly Cloudy
12:50 PM 48.2 °F - 28.4 °F 46% 30.13 in 10.0 mi SSW 12.7 mph 25.3 mph N/A   Mostly Cloudy
1:09 PM 50.0 °F - 28.4 °F 43% 30.10 in 10.0 mi SSW 17.3 mph 27.6 mph N/A   Scattered Clouds
1:30 PM 51.8 °F - 30.2 °F 44% 30.08 in 10.0 mi SSW 18.4 mph 26.5 mph N/A   Clear
1:50 PM 53.6 °F - 30.2 °F 41% 30.07 in 10.0 mi SW 18.4 mph 26.5 mph N/A   Clear
2:10 PM 53.6 °F - 32.0 °F 44% 30.06 in 10.0 mi SSW 20.7 mph 27.6 mph N/A   Clear
2:30 PM 55.4 °F - 32.0 °F 41% 30.04 in 10.0 mi SW 13.8 mph 29.9 mph N/A   Clear
2:50 PM 55.4 °F - 32.0 °F 41% 30.03 in 10.0 mi SW 16.1 mph 33.4 mph N/A   Clear
3:10 PM 55.4 °F - 33.8 °F 44% 30.01 in 10.0 mi SW 20.7 mph 27.6 mph N/A   Clear
3:30 PM 55.4 °F - 33.8 °F 44% 30.01 in 10.0 mi SW 19.6 mph 38.0 mph N/A   Clear
3:50 PM 55.4 °F - 33.8 °F 44% 30.00 in 10.0 mi SW 15.0 mph 31.1 mph N/A   Clear
4:10 PM 55.4 °F - 33.8 °F 44% 29.99 in 10.0 mi SW 19.6 mph 28.8 mph N/A   Clear
4:30 PM 55.4 °F - 33.8 °F 44% 29.97 in 10.0 mi SW 24.2 mph 31.1 mph N/A   Clear
4:49 PM 55.4 °F - 33.8 °F 44% 29.96 in 10.0 mi SW 21.9 mph 33.4 mph N/A   Clear
5:10 PM 55.4 °F - 33.8 °F 44% 29.95 in 10.0 mi SW 18.4 mph 25.3 mph N/A   Clear
5:30 PM 55.4 °F - 33.8 °F 44% 29.94 in 10.0 mi SW 15.0 mph 27.6 mph N/A   Clear
5:49 PM 53.6 °F - 35.6 °F 51% 29.93 in 10.0 mi SW 13.8 mph 24.2 mph N/A   Clear
6:10 PM 53.6 °F - 35.6 °F 51% 29.93 in 10.0 mi SSW 15.0 mph 21.9 mph N/A   Clear
6:30 PM 53.6 °F - 35.6 °F 51% 29.93 in 10.0 mi SW 9.2 mph 21.9 mph N/A   Clear
6:49 PM 51.8 °F - 35.6 °F 54% 29.92 in 10.0 mi SW 13.8 mph 21.9 mph N/A   Clear
7:10 PM 51.8 °F - 35.6 °F 54% 29.91 in 10.0 mi SW 13.8 mph 21.9 mph N/A   Clear
7:30 PM 51.8 °F - 35.6 °F 54% 29.91 in 10.0 mi SW 19.6 mph 28.8 mph N/A   Clear
7:50 PM 51.8 °F - 35.6 °F 54% 29.91 in 10.0 mi SW 13.8 mph 24.2 mph N/A   Clear
8:10 PM 51.8 °F - 35.6 °F 54% 29.90 in 10.0 mi SW 17.3 mph 27.6 mph N/A   Clear
8:29 PM 51.8 °F - 35.6 °F 54% 29.90 in 10.0 mi SW 15.0 mph 24.2 mph N/A   Clear
8:50 PM 51.8 °F - 35.6 °F 54% 29.90 in 10.0 mi SW 17.3 mph 25.3 mph N/A   Clear
9:10 PM 50.0 °F - 35.6 °F 58% 29.90 in 10.0 mi SW 17.3 mph 25.3 mph N/A   Clear
9:29 PM 50.0 °F - 35.6 °F 58% 29.90 in 10.0 mi SW 12.7 mph 25.3 mph N/A   Clear
9:50 PM 48.2 °F - 33.8 °F 58% 29.89 in 10.0 mi SW 18.4 mph 26.5 mph N/A   Clear
10:10 PM 48.2 °F - 33.8 °F 58% 29.89 in 10.0 mi SW 18.4 mph 25.3 mph N/A   Clear
10:29 PM 48.2 °F - 33.8 °F 58% 29.88 in 10.0 mi SW 17.3 mph 24.2 mph N/A   Scattered Clouds
10:50 PM 48.2 °F - 33.8 °F 58% 29.87 in 10.0 mi SW 19.6 mph 28.8 mph N/A   Scattered Clouds
11:10 PM 50.0 °F - 33.8 °F 54% 29.86 in 10.0 mi SW 16.1 mph 31.1 mph N/A   Mostly Cloudy
11:30 PM 50.0 °F - 33.8 °F 54% 29.87 in 10.0 mi WSW 20.7 mph 28.8 mph N/A   Mostly Cloudy
11:50 PM 50.0 °F - 33.8 °F 54% 29.87 in 10.0 mi WSW 15.0 mph 24.2 mph N/A   Scattered Clouds